HARMALA Weather Reports


Display with metric or nautical units.
time (UTC)temp
F
wind
direction
speed
MPH
gust
MPH
rain 1hr
in
rain 24hr
in
rain mn
in
humidity
%
barometer
mb
20260902130437 68 0.0 0.0 0.00 0.00 0.00 54 1006.5
20260902124438 69 0.0 0.0 0.00 0.00 0.00 53 1006.5
20260902122435 69 0.0 0.0 0.00 0.00 0.00 50 1006.6
20260902120436 69 0.0 0.0 0.00 0.00 0.00 50 1006.7
20260902114436 68 0.0 0.0 0.00 0.00 0.00 52 1006.9
20260902112438 68 0.0 0.0 0.00 0.00 0.00 54 1007.0
20260902110436 67 0.0 0.0 0.00 0.00 0.00 54 1007.1
20260902104436 66 0.0 0.0 0.00 0.00 0.00 53 1007.2
20260902102436 66 0.0 0.0 0.00 0.00 0.00 55 1007.2
20260902100435 65 0.0 0.0 0.00 0.00 0.00 57 1007.2
20260902092436 62 0.0 0.0 0.00 0.00 0.00 60 1007.3
20260902084435 60 0.0 0.0 0.00 0.00 0.00 65 1007.5
20260902082437 60 0.0 0.0 0.00 0.00 0.00 71 1007.7
20260902080435 60 0.0 0.0 0.00 0.00 0.00 73 1007.6
20260902074436 58 0.0 0.0 0.00 0.00 0.00 84 1007.7
20260902072105 56 0.0 0.0 0.00 0.00 0.00 93 1007.8
20260902070435 56 0.0 0.0 0.00 0.00 0.00 98 1007.7
20260902064434 53 0.0 0.0 0.00 0.00 0.00 100 1007.6
20260902062435 53 0.0 0.0 0.00 0.00 0.00 100 1007.6
20260902060437 52 0.0 0.0 0.00 0.00 0.00 100 1007.6
20260902054435 51 0.0 0.0 0.00 0.00 0.00 100 1007.5
20260902052436 51 0.0 0.0 0.00 0.00 0.00 100 1007.5
20260902050436 49 0.0 0.0 0.00 0.00 0.00 100 1007.5
20260902044434 49 0.0 0.0 0.00 0.00 0.00 100 1007.5
20260902040436 47 0.0 0.0 0.00 0.00 0.00 100 1007.5
20260902034436 44 0.0 0.0 0.00 0.00 0.00 100 1007.6
20260902030436 44 0.0 0.0 0.00 0.00 0.00 99 1007.4
20260902024438 44 0.0 0.0 0.00 0.00 0.00 99 1007.4
20260902022435 44 0.0 0.0 0.00 0.00 0.00 99 1007.5
20260902020435 44 0.0 0.0 0.00 0.00 0.00 99 1007.4
20260902014437 44 0.0 0.0 0.00 0.00 0.00 99 1007.3
20260902012436 45 0.0 0.0 0.00 0.00 0.00 99 1007.5
20260902010435 45 0.0 0.0 0.00 0.00 0.00 99 1007.6
20260902002437 46 0.0 0.0 0.00 0.00 0.00 99 1007.6
20260902000436 47 0.0 0.0 0.00 0.00 0.00 99 1007.7
20260901234436 47 0.0 0.0 0.00 0.00 0.00 99 1007.7
20260901232435 47 0.0 0.0 0.00 0.00 0.00 99 1007.6
20260901224436 49 0.0 0.0 0.00 0.00 0.00 98 1007.6
20260901222436 49 0.0 0.0 0.00 0.00 0.00 98 1007.6
20260901220435 50 0.0 0.0 0.00 0.00 0.00 97 1007.6
20260901214435 51 0.0 0.0 0.00 0.00 0.00 97 1007.6
20260901212435 52 0.0 0.0 0.00 0.00 0.00 94 1007.5
20260901210434 53 0.0 0.0 0.00 0.00 0.00 93 1007.5
20260901204433 55 0.0 0.0 0.00 0.00 0.00 88 1007.4
20260901202434 56 0.0 0.0 0.00 0.00 0.00 86 1007.5
20260901194432 58 0.0 0.0 0.00 0.00 0.00 84 1007.2
20260901192433 58 0.0 0.0 0.00 0.00 0.00 89 1007.2
20260901184434 60 0.0 0.0 0.00 0.00 0.00 84 1007.0
20260901182433 61 0.0 0.0 0.00 0.00 0.00 80 1007.0
20260901180433 61 0.0 0.0 0.00 0.00 0.00 82 1007.0
20260901174433 62 0.0 0.0 0.00 0.00 0.00 80 1006.9
20260901172435 62 0.0 0.0 0.00 0.00 0.00 79 1006.9
20260901170434 63 0.0 0.0 0.00 0.00 0.00 78 1006.7
20260901164435 64 0.0 0.0 0.00 0.00 0.00 76 1006.6
20260901152433 66 0.0 0.0 0.00 0.01 0.00 70 1006.3
20260901144103 67 0.0 0.0 0.00 0.01 0.00 67 1006.4
20260901140432 67 0.0 0.0 0.00 0.01 0.00 69 1006.4
20260901134432 67 0.0 0.0 0.00 0.01 0.00 67 1006.4
20260901132432 68 0.0 0.0 0.00 0.01 0.00 65 1006.4